Location: Compiabbi
(43.7833°N, 11.3667°E)
Time: 17:22:09
(UTC+00:00)

Daily predictions for brighter satellites

Satellite Brightness Start Highest point End
(mag) Time Altitude Azimuth Time Altitude Azimuth Time Altitude Azimuth
Cosmos 1980 Rocket 2.7 17:17:03 10° S 17:22:13 38° ESE 17:27:26 10° NE
FALCON 9 DEB 3.1 17:26:30 10° SW 17:29:35 54° SE 17:32:41 10° ENE
Lacrosse 5 rocket 1.6 17:25:46 10° NW 17:30:09 55° NE 17:34:19 10° ESE
Sich 1 3.9 17:26:49 10° SSE 17:30:30 27° E 17:34:13 10° NNE
CSL-04 DEB 4.3 17:27:23 10° NNE 17:31:20 87° ESE 17:35:17 10° SSW
Cosmos 1452 Rocket 3.6 17:27:03 10° SSW 17:32:18 90° ESE 17:37:35 10° NNE
Cosmos 44 3.7 17:29:25 10° NNW 17:34:50 59° NE 17:40:09 10° SE
Cosmos 2082 3.7 17:30:09 10° NNW 17:35:48 76° ENE 17:41:24 10° SSE
CZ-4B R/B 1.5 17:35:23 10° N 17:38:24 70° WNW 17:41:25 10° SSW
SJ-11-01 4.5 17:33:56 10° SE 17:38:25 48° ENE 17:42:56 10° N
Cosmos 724 4.5 17:33:01 10° SSW 17:38:54 60° ESE 17:44:58 10° NE
Cosmos 1867 3.9 17:34:48 10° S 17:39:56 45° ESE 17:45:08 10° NE
Cosmos 1707 Rocket 4.5 17:38:53 10° NNE 17:42:40 27° ENE 17:46:23 10° SE
Cosmos 1741 Rocket 4.0 17:38:49 10° NNW 17:44:11 81° ENE 17:49:30 10° SSE
Cosmos 1697 Rocket 3.0 17:40:45 10° SSW 17:46:24 74° WNW 17:52:05 10° NNE
Cosmos 1633 Rocket 4.3 17:43:17 10° SE 17:46:35 21° E 17:49:54 10° NE
Cosmos 2360 4.3 17:41:40 10° SSW 17:47:22 88° WNW 17:53:07 10° NNE
Cosmos 1437 3.8 17:45:17 10° NNE 17:47:33 20° ENE 17:49:16 13° ESE
Cosmos 1110 Rocket 4.1 17:44:17 10° S 17:49:29 60° ESE 17:54:45 10° NNE
RESURS DK-1 3.9 17:45:51 10° NW 17:49:42 39° WSW 17:53:33 10° S
USA 234 3.3 17:43:38 10° NE 17:50:11 74° SE 17:56:44 10° SW
ERS-2 2.2 17:46:55 10° NNE 17:50:29 51° E 17:54:03 10° S
SL-16 R/B 3.5 17:47:33 10° SE 17:51:20 19° E 17:55:08 10° ENE
IRS-1C Rocket 4.2 17:46:23 10° SSE 17:51:39 85° WSW 17:56:58 10° NNW
MOS 1 Rocket 4.3 17:46:58 10° N 17:51:42 55° WNW 17:56:41 10° SSW
Okean O Rocket 4.4 17:52:06 10° SSW 17:55:34 23° W 17:59:02 10° NW
Cosmos 2369 3.9 17:52:36 10° SSW 17:58:15 76° WNW 18:03:58 10° NNE
PSLV R/B 3.8 17:55:15 10° NNE 17:59:24 79° ESE 18:03:28 10° S
USA 305 2.8 17:55:15 10° SW 17:59:31 83° SE 18:03:07 14° NE
SAR-Lupe-4 3.5 17:56:09 10° NNE 17:59:42 61° ESE 18:03:14 10° S
NOSS 2-1 (E) 4.5 17:54:50 10° NNW 17:59:52 55° NE 18:06:55 10° SE
Ariane Rocket 4.3 18:03:13 18° E 18:04:51 21° ENE 18:08:36 10° NNE
CZ-4 R/B 1.7 18:01:46 10° S 18:05:35 66° W 18:09:25 10° NNW
SeaSat 1 2.6 18:01:17 10° NNE 18:06:15 81° WNW 18:11:10 10° SSW
USA 307 2.8 18:03:03 10° SW 18:07:19 89° SSE 18:10:33 17° NE
Cosmos 2263 Rocket 2.4 18:04:17 10° NNW 18:09:39 46° ENE 18:14:09 14° SE
Cosmos 2074 Rocket 4.0 18:05:38 10° S 18:11:46 59° E 18:17:54 10° NNE
FALCON 9 DEB 3.1 18:10:32 10° WSW 18:13:42 66° NNW 18:15:23 25° NE
USA 306 2.9 18:09:27 10° WSW 18:13:42 80° NW 18:16:44 19° NE
Cosmos 2227 Rocket 4.4 18:12:23 10° NW 18:17:05 27° WSW 18:21:45 10° SSW
USA 308 3.0 18:13:19 10° WSW 18:17:36 78° NW 18:20:26 21° NE
SAR-Lupe-1 4.2 18:14:06 10° N 18:17:42 77° WNW 18:21:17 10° SSW
Cosmos 1805 Rocket 4.0 18:15:18 10° SSW 18:19:38 65° W 18:24:00 10° N
ERBS 4.0 18:19:26 10° S 18:21:01 19° SSE 18:21:01 19° SSE
Cosmos 2184 Rocket 3.9 18:18:16 10° S 18:24:22 70° E 18:30:31 10° NNE
H-2A R/B 2.9 18:19:57 10° S 18:25:15 56° W 18:30:37 10° NNW
ARGOS 3.3 18:20:36 10° S 18:26:01 78° WSW 18:31:29 10° NNW
Meteor 1-27 Rocket 4.1 18:21:06 10° NNW 18:26:34 64° W 18:32:00 10° S
SJ-6B 3.5 18:28:39 34° ENE 18:28:42 34° ENE 18:32:25 10° N
OBJECT-B 3.4 18:32:13 10° NNE 18:32:13 10° NNE 18:32:18 10° NNE
Cosmos 2278 4.1 18:25:01 10° SW 18:30:39 67° WNW 18:36:21 10° NNE
SL-08 RB Rocket 3.6 18:26:25 10° SSE 18:30:53 88° ENE 18:35:26 10° NNW
Cosmos 1271 Rocket 2.4 18:28:35 10° N 18:32:20 78° E 18:35:17 16° SSE
FALCON 9 DEB 3.9 18:29:27 10° W 18:32:30 42° NNW 18:33:29 31° NNE
Meteor 1-25 Rocket 4.2 18:27:17 10° S 18:33:02 70° E 18:38:46 10° NNE
COSMOS 2455 2.9 18:27:10 10° NNW 18:33:13 78° WSW 18:39:12 10° SSE
GP-B 3.5 18:33:07 38° E 18:33:34 39° E 18:37:42 10° NNE
HJ-1C 4.3 18:30:33 10° S 18:33:47 48° W 18:37:03 10° NNW
Cosmos 1461 3.4 18:31:56 10° S 18:36:24 45° ESE 18:37:22 40° E
MetOp-A 4.1 18:32:13 14° SSE 18:36:43 57° ENE 18:41:59 10° N
Cosmos 1602 3.7 18:33:34 10° S 18:37:21 59° E 18:41:12 10° NNE
CZ-2C R/B 2.7 18:33:11 10° NNE 18:38:46 86° WNW 18:44:12 10° SSW
Cosmos 1689 Rocket 4.2 18:36:22 10° N 18:38:52 27° WNW 18:41:21 10° SW
Okean 1 3.5 18:35:10 10° N 18:38:49 46° ENE 18:38:49 46° ENE
CSL-04 Debris 4.5 18:33:54 10° S 18:39:17 68° WSW 18:44:44 10° NNW
Cosmos 44 Rocket 4.5 18:36:23 10° NNW 18:40:51 28° NE 18:41:15 27° NE
Cosmos 1666 Rocket 3.5 18:37:09 10° S 18:41:30 83° W 18:45:52 10° N
Cosmos 1862 Rocket 3.5 18:39:36 10° N 18:44:04 63° E 18:45:35 38° SE
Meteor 2-12 Rocket 4.4 18:39:19 10° SSE 18:45:10 54° E 18:51:05 10° NNE
BREEZE-M DEB (TANK) 3.1 18:43:43 10° WNW 18:45:57 33° N 18:46:17 32° NNE
CSL-04 Rocket 4.1 18:41:10 10° S 18:46:39 64° WSW 18:52:11 10° NNW
Gbstr 26 Del rocket 3.4 18:42:45 10° WSW 18:47:13 72° NNW 18:49:31 33° NE
Cosmos 1844 Rocket 4.0 18:43:09 10° N 18:47:04 23° NE 18:47:04 23° NE
Cosmos 2341 Rocket 4.4 18:41:47 10° SSE 18:47:31 38° E 18:53:15 10° NNE
Cosmos 1486 Rocket 4.2 18:44:39 10° N 18:49:47 49° ENE 18:50:25 47° E
FALCON 9 DEB 4.4 18:54:07 10° W 18:56:59 32° NNW 18:56:59 32° NNW
SL-4 R/B 3.4 19:00:26 10° WNW 19:03:19 25° NNW 19:03:19 25° NNW
Cosmos 1980 Rocket 3.7 19:01:06 10° WSW 19:06:13 35° NW 19:11:25 10° N
Lacrosse 5 rocket 3.5 19:05:35 10° WNW 19:09:00 23° WSW 19:11:00 16° SSW
Cosmos 2322 Rocket 2.0 19:09:46 10° SSW 19:15:03 69° SE 19:15:03 69° SE
Cosmos 968 Rocket 3.4 19:13:23 10° NNW 19:18:40 84° WSW 19:19:11 73° S
USA 234 4.1 19:29:23 24° NNE 19:32:57 44° NNW 19:39:02 10° W
SL-16 R/B 2.4 19:29:12 10° SW 19:34:50 67° WNW 19:37:14 35° N
Resurs 01 Rocket 4.0 19:44:38 15° N 19:44:38 15° N 19:45:27 10° N
Ariane Rocket 3.6 19:43:24 54° W 19:43:24 54° W 19:48:26 10° NNW
Cosmos 2263 Rocket 4.0 19:48:42 10° NW 19:53:17 27° WSW 19:55:56 19° SW
Cosmos 1844 Rocket 4.5 20:26:21 10° NNW 20:28:45 26° NW 20:28:45 26° NW
